| time (UTC) | temp C | wind direction | speed KPH | gust KPH | rain 1hr cm | rain 24hr cm | rain mn cm | humidity % | barometer mb |
| 20260508175525 | 11 | 277 | 1.6 | 3.2 | 0.00 | 0.00 | 0.00 | 81 | 1028.6 |
| 20260508172524 | 11 | 262 | 1.6 | 3.2 | 0.00 | 0.00 | 0.00 | 80 | 1028.1 |
| 20260508165523 | 11 | 199 | 3.2 | 4.8 | 0.00 | 0.00 | 0.00 | 83 | 1027.6 |
| 20260508162521 | 11 | 154 | 1.6 | 3.2 | 0.00 | 0.00 | 0.00 | 83 | 1027.4 |
| 20260508155516 | 10 | 233 | 4.8 | 4.8 | 0.00 | 0.00 | 0.00 | 84 | 1027.3 |
| 20260508152515 | 10 | 203 | 1.6 | 1.6 | 0.00 | 0.00 | 0.00 | 87 | 1027.9 |
| 20260508145512 | 10 | 157 | 1.6 | 3.2 | 0.00 | 0.00 | 0.00 | 91 | 1027.4 |
| 20260508142512 | 8 | 192 | 0.0 | 0.0 | 0.00 | 0.00 | 0.00 | 97 | 1027.1 |
| 20260508135509 | 8 | 193 | 1.6 | 1.6 | 0.00 | 0.00 | 0.00 | 96 | 1026.6 |
| 20260508132509 | 8 | 200 | 3.2 | 3.2 | 0.00 | 0.00 | 0.00 | 99 | 1026.1 |
| 20260508125504 | 8 | 210 | 1.6 | 1.6 | 0.00 | 0.00 | 0.00 | 99 | 1026.0 |
| 20260508122501 | 8 | 204 | 0.0 | 0.0 | 0.00 | 0.00 | 0.00 | 99 | 1025.8 |
| 20260508115458 | 7 | 200 | 0.0 | 0.0 | 0.00 | 0.00 | 0.00 | 99 | 1025.7 |
| 20260508112456 | 7 | 192 | 1.6 | 1.6 | 0.00 | 0.00 | 0.00 | 99 | 1025.2 |
| 20260508105452 | 7 | 199 | 0.0 | 0.0 | 0.00 | 0.00 | 0.00 | 99 | 1024.9 |
| 20260508102448 | 7 | 204 | 0.0 | 0.0 | 0.00 | 0.00 | 0.00 | 99 | 1024.6 |
| 20260508095443 | 7 | 204 | 0.0 | 0.0 | 0.00 | 0.00 | 0.00 | 99 | 1024.5 |
| 20260508092443 | 9 | 200 | 0.0 | 0.0 | 0.00 | 0.00 | 0.00 | 97 | 1024.4 |
| 20260508085443 | 9 | 190 | 1.6 | 1.6 | 0.00 | 0.00 | 0.00 | 95 | 1024.4 |
| 20260508082441 | 8 | 201 | 0.0 | 0.0 | 0.00 | 0.00 | 0.00 | 99 | 1024.3 |
| 20260508075441 | 8 | 201 | 0.0 | 0.0 | 0.00 | 0.00 | 0.00 | 98 | 1024.0 |
| 20260508072441 | 9 | 194 | 0.0 | 0.0 | 0.00 | 0.00 | 0.00 | 96 | 1024.3 |
| 20260508065438 | 9 | 206 | 0.0 | 0.0 | 0.00 | 0.00 | 0.00 | 95 | 1024.3 |
| 20260508062435 | 9 | 200 | 0.0 | 0.0 | 0.00 | 0.00 | 0.00 | 94 | 1024.4 |
| 20260508055434 | 10 | 190 | 1.6 | 1.6 | 0.00 | 0.00 | 0.00 | 91 | 1024.3 |
| 20260508052433 | 11 | 196 | 1.6 | 1.6 | 0.00 | 0.00 | 0.00 | 87 | 1024.5 |
| 20260508045430 | 12 | 197 | 0.0 | 0.0 | 0.00 | 0.00 | 0.00 | 83 | 1024.4 |
| 20260508042429 | 12 | 200 | 0.0 | 0.0 | 0.00 | 0.00 | 0.00 | 79 | 1024.5 |
| 20260508035428 | 14 | 199 | 0.0 | 0.0 | 0.00 | 0.00 | 0.00 | 72 | 1024.5 |
| 20260508032423 | 15 | 191 | 0.0 | 0.0 | 0.00 | 0.00 | 0.00 | 67 | 1024.4 |
| 20260508025421 | 15 | 204 | 0.0 | 0.0 | 0.00 | 0.00 | 0.00 | 68 | 1024.4 |
| 20260508022418 | 16 | 211 | 0.0 | 0.0 | 0.00 | 0.00 | 0.00 | 65 | 1024.5 |
| 20260508015418 | 17 | 207 | 0.0 | 0.0 | 0.00 | 0.00 | 0.00 | 66 | 1024.5 |
| 20260508012414 | 17 | 225 | 3.2 | 3.2 | 0.00 | 0.00 | 0.00 | 59 | 1024.6 |
| 20260508005409 | 17 | 191 | 0.0 | 0.0 | 0.00 | 0.00 | 0.00 | 61 | 1025.2 |
| 20260508002406 | 17 | 257 | 0.0 | 0.0 | 0.00 | 0.00 | 0.00 | 59 | 1025.1 |
| 20260507235403 | 18 | 245 | 1.6 | 3.2 | 0.00 | 0.00 | 0.00 | 59 | 1025.5 |
| 20260507232402 | 17 | 52 | 4.8 | 4.8 | 0.00 | 0.00 | 0.00 | 61 | 1025.5 |
| 20260507225358 | 17 | 133 | 4.8 | 4.8 | 0.00 | 0.00 | 0.00 | 61 | 1025.8 |
| 20260507222355 | 18 | 18 | 0.0 | 1.6 | 0.00 | 0.00 | 0.00 | 57 | 1026.0 |
| 20260507215354 | 18 | 211 | 0.0 | 0.0 | 0.00 | 0.00 | 0.00 | 58 | 1026.2 |
| 20260507212351 | 16 | 205 | 0.0 | 0.0 | 0.00 | 0.00 | 0.00 | 64 | 1026.6 |
| 20260507205349 | 16 | 196 | 0.0 | 0.0 | 0.00 | 0.00 | 0.00 | 64 | 1026.9 |
| 20260507202348 | 16 | 94 | 0.0 | 0.0 | 0.00 | 0.00 | 0.00 | 65 | 1027.4 |
| 20260507195344 | 17 | 211 | 0.0 | 1.6 | 0.00 | 0.00 | 0.00 | 61 | 1027.5 |
| 20260507192341 | 15 | 190 | 0.0 | 1.6 | 0.00 | 0.00 | 0.00 | 69 | 1027.9 |
| 20260507185336 | 15 | 172 | 3.2 | 3.2 | 0.00 | 0.00 | 0.00 | 70 | 1028.0 |
| 20260507182335 | 14 | 178 | 4.8 | 8.0 | 0.00 | 0.00 | 0.00 | 74 | 1028.0 |